FENGYUN 1C DEB, 31979

Orbit data source: Space-Track

FENGYUN 1C DEB, 31979 is space debris in SSO originally from a launch on Mon, 10 May 1999 UTC launched from the Taiyaun Space Center, China (TSC). Fengyun 1C debris stems from the Chinese weather satellite Fengyun-1C, which was intentionally destroyed by a Chinese anti-satellite missile in 2007. This event dramatically increased the amount of space debris, with thousands of trackable fragments posing hazards to satellites and human spaceflight. The Fengyun 1C debris cloud has become a focal point in discussions about space sustainability and the need for international regulations to prevent the creation of new debris.

Loading next visibility...
Identifier
31979, 1999-025CPG
Orbit
SSO
Country
Flag of CNCN / PRC
Related business
Manufacturer
Unknown
Mission
Spacecraft
Bus & Motor
Unknown
Mass
Unknown
Launch date (UTC)
1999-05-10 (27 years ago)
Launch vehicle
Unknown
Launch site
Taiyaun Space Center, China (TSC)
Object type
Payload
Rocket body
Debris
Shape & HBR
Unknown shape, 0.1 m
Radar Cross Section
Small (<0.1 m²)

Expand to show TLE details & history
Last TLE update: 1 week ago

TLE from 1 week ago
0 FENGYUN 1C DEB
1 31979U 99025CPG 26198.49980898  .00000620  00000-0  58178-3 0  9995
2 31979  99.3766 290.7636 0264468  79.1663 283.9128 13.70638697608801
Epoch: 2026-07-17T11:59Z
TLE epoch observation values (Epoch: 2026-07-17T11:59:43.495Z)
Latitude
-0.00005°
Longitude
175.50635°
Altitude
958.103 km
Speed
7.394 km/s
True Right ascension
19h 23m 03s
True Declination
0° 00' 00"
Sunlit
Object was in full shadow at epoch
Visualization orbit readout
Latitude
Unknown
Longitude
Unknown
Altitude
Unknown
Speed
Unknown
Apparent Right ascension
Unknown
Apparent Declination
Unknown
Sunlit
N/A
Visualization observer readout
Local Sidereal Time
01:15:56
Azimuth
Unknown
Elevation
Unknown
Doppler factor
Unknown
Orbital elements
Apogee altitude
1,189.517 km
Perigee altitude
799.55 km
Semi-major axis
7,372.67 km
Eccentricity
0.02645
Inclination
99.3766°
RAAN
290.7636°
Arg. of periapsis
79.1663°
True anomaly
280.94889°
Mean anomaly
283.9128°
Eccentric anomaly
282.43305°
Mean motion
3.42851 °/min
Orbital period
105 mins
BSTAR
0.00058178
Loading maneuver chart data...
Computing Atmospheric mass density...

Documentation

Showing up to 5 results
|